timestamp,wind_dir_avg,wind_spd_max_dir,wind_spd_avg,wind_spd_gust,battery_voltage,lat,long
2018-01-26 00:00:00+00:00,274.0,280.0,10.43,11.59,,47.59359,-54.27349
2018-01-26 00:10:00+00:00,269.0,269.0,11.43,13.85,,47.59359,-54.27349
2018-01-26 00:20:00+00:00,277.0,282.0,10.61,12.22,,47.59359,-54.27349
2018-01-26 00:30:00+00:00,261.0,261.0,11.99,13.47,,47.59359,-54.27349
2018-01-26 00:40:00+00:00,261.0,263.0,9.69,11.44,,47.59359,-54.27349
2018-01-26 00:50:00+00:00,271.0,267.0,10.96,13.16,,47.59359,-54.27349
2018-01-26 01:00:00+00:00,270.0,273.0,9.91,11.37,,47.59359,-54.27349
2018-01-26 01:10:00+00:00,269.0,266.0,10.13,12.82,,47.59359,-54.27349
2018-01-26 01:20:00+00:00,269.0,269.0,9.62,10.55,,47.59359,-54.27349
2018-01-26 01:30:00+00:00,307.0,302.0,7.0,9.35,,47.59359,-54.27349
2018-01-26 01:40:00+00:00,323.0,312.0,6.18,7.47,,47.59359,-54.27349
2018-01-26 01:50:00+00:00,348.0,329.0,7.03,9.01,,47.59359,-54.27349
2018-01-26 02:00:00+00:00,312.0,316.0,6.77,9.49,,47.59359,-54.27349
2018-01-26 02:10:00+00:00,318.0,313.0,8.18,9.54,,47.59359,-54.27349
2018-01-26 02:20:00+00:00,339.0,326.0,6.97,8.33,,47.59359,-54.27349
2018-01-26 02:30:00+00:00,324.0,326.0,7.11,8.79,,47.59359,-54.27349
2018-01-26 02:40:00+00:00,315.0,312.0,6.81,8.08,,47.59359,-54.27349
2018-01-26 02:50:00+00:00,306.0,305.0,6.43,8.01,,47.59359,-54.27349
2018-01-26 03:00:00+00:00,313.0,303.0,6.69,8.48,,47.59359,-54.27349
2018-01-26 03:10:00+00:00,310.0,307.0,7.35,9.62,,47.59359,-54.27349
2018-01-26 03:20:00+00:00,304.0,308.0,7.42,9.32,,47.59359,-54.27349
2018-01-26 03:30:00+00:00,311.0,315.0,9.17,10.47,,47.59359,-54.27349
2018-01-26 03:40:00+00:00,300.0,296.0,7.46,9.13,,47.59359,-54.27349
2018-01-26 03:50:00+00:00,298.0,300.0,8.28,9.37,,47.59359,-54.27349
2018-01-26 04:00:00+00:00,312.0,309.0,8.67,10.13,,47.59359,-54.27349
2018-01-26 04:10:00+00:00,301.0,309.0,7.4,9.48,,47.59359,-54.27349
2018-01-26 04:20:00+00:00,305.0,312.0,8.2,9.71,,47.59359,-54.27349
2018-01-26 04:30:00+00:00,301.0,310.0,7.98,9.93,,47.59359,-54.27349
2018-01-26 04:40:00+00:00,313.0,312.0,8.55,10.47,,47.59359,-54.27349
2018-01-26 04:50:00+00:00,316.0,326.0,9.14,11.1,,47.59359,-54.27349
2018-01-26 05:00:00+00:00,320.0,323.0,8.79,11.0,,47.59359,-54.27349
2018-01-26 05:10:00+00:00,299.0,299.0,7.38,8.79,,47.59359,-54.27349
2018-01-26 05:20:00+00:00,286.0,292.0,7.02,8.6,,47.59359,-54.27349
2018-01-26 05:30:00+00:00,284.0,277.0,6.39,8.42,,47.59359,-54.27349
2018-01-26 05:40:00+00:00,286.0,290.0,6.54,9.2,,47.59359,-54.27349
2018-01-26 05:50:00+00:00,273.0,273.0,7.07,9.55,,47.59359,-54.27349
2018-01-26 06:00:00+00:00,299.0,304.0,7.48,9.47,,47.59359,-54.27349
2018-01-26 06:10:00+00:00,293.0,288.0,7.96,9.55,,47.59359,-54.27349
2018-01-26 06:20:00+00:00,288.0,275.0,7.33,8.7,,47.59359,-54.27349
2018-01-26 06:30:00+00:00,276.0,269.0,6.69,7.67,,47.59359,-54.27349
2018-01-26 06:40:00+00:00,297.0,293.0,6.97,8.41,,47.59359,-54.27349
2018-01-26 06:50:00+00:00,299.0,288.0,6.15,7.13,,47.59359,-54.27349
2018-01-26 07:00:00+00:00,301.0,301.0,7.13,8.51,,47.59359,-54.27349
2018-01-26 07:10:00+00:00,296.0,294.0,6.68,9.09,,47.59359,-54.27349
2018-01-26 07:20:00+00:00,293.0,295.0,6.93,9.06,,47.59359,-54.27349
2018-01-26 07:30:00+00:00,293.0,280.0,7.43,9.59,,47.59359,-54.27349
2018-01-26 07:40:00+00:00,293.0,292.0,6.38,8.21,,47.59359,-54.27349
2018-01-26 07:50:00+00:00,288.0,290.0,7.13,9.12,,47.59359,-54.27349
2018-01-26 08:00:00+00:00,291.0,296.0,7.91,9.53,,47.59359,-54.27349
2018-01-26 08:10:00+00:00,282.0,281.0,6.49,7.1,,47.59359,-54.27349
2018-01-26 08:20:00+00:00,276.0,279.0,8.08,9.99,,47.59359,-54.27349
2018-01-26 08:30:00+00:00,290.0,294.0,6.97,8.72,,47.59359,-54.27349
2018-01-26 08:40:00+00:00,281.0,282.0,8.04,9.95,,47.59359,-54.27349
2018-01-26 08:50:00+00:00,287.0,291.0,7.56,9.04,,47.59359,-54.27349
2018-01-26 09:00:00+00:00,286.0,277.0,6.17,7.46,,47.59359,-54.27349
2018-01-26 09:10:00+00:00,264.0,267.0,6.52,7.39,,47.59359,-54.27349
2018-01-26 09:20:00+00:00,276.0,281.0,5.39,6.48,,47.59359,-54.27349
2018-01-26 09:30:00+00:00,272.0,265.0,4.93,5.77,,47.59359,-54.27349
2018-01-26 09:40:00+00:00,268.0,266.0,6.56,7.44,,47.59359,-54.27349
2018-01-26 09:50:00+00:00,257.0,258.0,7.38,9.12,,47.59359,-54.27349
2018-01-26 10:00:00+00:00,272.0,275.0,7.63,8.66,,47.59359,-54.27349
2018-01-26 10:10:00+00:00,272.0,266.0,7.52,8.81,,47.59359,-54.27349
2018-01-26 10:20:00+00:00,268.0,268.0,7.14,8.69,,47.59359,-54.27349
2018-01-26 10:30:00+00:00,256.0,254.0,9.05,10.09,,47.59359,-54.27349
2018-01-26 10:40:00+00:00,266.0,261.0,9.11,11.01,,47.59359,-54.27349
2018-01-26 10:50:00+00:00,269.0,268.0,10.02,11.25,,47.59359,-54.27349
2018-01-26 11:00:00+00:00,256.0,250.0,8.07,9.79,,47.59359,-54.27349
2018-01-26 11:10:00+00:00,258.0,260.0,8.0,9.28,,47.59359,-54.27349
2018-01-26 11:20:00+00:00,257.0,246.0,7.88,8.85,,47.59359,-54.27349
2018-01-26 11:30:00+00:00,255.0,254.0,8.76,9.58,,47.59359,-54.27349
2018-01-26 11:40:00+00:00,252.0,250.0,7.61,8.82,,47.59359,-54.27349
2018-01-26 11:50:00+00:00,259.0,261.0,8.12,8.87,,47.59359,-54.27349
2018-01-26 12:00:00+00:00,262.0,263.0,7.32,8.41,,47.59359,-54.27349
2018-01-26 12:10:00+00:00,267.0,261.0,6.93,7.81,,47.59359,-54.27349
2018-01-26 12:20:00+00:00,262.0,266.0,5.9,6.64,,47.59359,-54.27349
2018-01-26 12:30:00+00:00,259.0,265.0,6.18,7.01,,47.59359,-54.27349
2018-01-26 12:40:00+00:00,267.0,256.0,5.4,6.49,,47.59359,-54.27349
2018-01-26 12:50:00+00:00,286.0,282.0,5.15,6.17,,47.59359,-54.27349
2018-01-26 13:00:00+00:00,289.0,283.0,5.43,6.53,,47.59359,-54.27349
2018-01-26 13:10:00+00:00,287.0,288.0,5.16,6.61,,47.59359,-54.27349
2018-01-26 13:20:00+00:00,328.0,327.0,5.89,7.55,,47.59359,-54.27349
2018-01-26 13:30:00+00:00,303.0,308.0,3.47,4.27,,47.59359,-54.27349
2018-01-26 13:40:00+00:00,326.0,324.0,3.99,5.0,,47.59359,-54.27349
2018-01-26 13:50:00+00:00,317.0,318.0,5.36,7.8,,47.59359,-54.27349
2018-01-26 14:00:00+00:00,325.0,324.0,5.62,6.64,,47.59359,-54.27349
2018-01-26 14:10:00+00:00,323.0,326.0,4.91,5.84,,47.59359,-54.27349
2018-01-26 14:20:00+00:00,325.0,333.0,4.24,5.48,,47.59359,-54.27349
2018-01-26 14:30:00+00:00,320.0,323.0,6.05,6.91,,47.59359,-54.27349
2018-01-26 14:40:00+00:00,322.0,328.0,5.93,8.11,,47.59359,-54.27349
2018-01-26 14:50:00+00:00,320.0,320.0,4.94,6.15,,47.59359,-54.27349
2018-01-26 15:00:00+00:00,333.0,333.0,7.27,7.99,,47.59359,-54.27349
2018-01-26 15:10:00+00:00,308.0,303.0,5.67,6.69,,47.59359,-54.27349
2018-01-26 15:20:00+00:00,322.0,322.0,5.52,6.34,,47.59359,-54.27349
2018-01-26 15:30:00+00:00,310.0,339.0,5.28,8.31,,47.59359,-54.27349
2018-01-26 15:40:00+00:00,288.0,287.0,5.05,6.3,,47.59359,-54.27349
2018-01-26 15:50:00+00:00,330.0,334.0,4.66,5.36,,47.59359,-54.27349
2018-01-26 16:00:00+00:00,315.0,299.0,5.72,6.87,,47.59359,-54.27349
2018-01-26 16:10:00+00:00,330.0,330.0,4.83,5.38,,47.59359,-54.27349
2018-01-26 16:20:00+00:00,324.0,323.0,6.38,7.59,,47.59359,-54.27349
2018-01-26 16:30:00+00:00,301.0,300.0,4.42,5.06,,47.59359,-54.27349
2018-01-26 16:40:00+00:00,289.0,284.0,4.94,5.98,,47.59359,-54.27349
2018-01-26 16:50:00+00:00,327.0,327.0,6.53,7.34,,47.59359,-54.27349
2018-01-26 17:00:00+00:00,317.0,321.0,6.44,7.37,,47.59359,-54.27349
2018-01-26 17:10:00+00:00,324.0,320.0,4.65,6.22,,47.59359,-54.27349
2018-01-26 17:20:00+00:00,307.0,305.0,6.0,6.85,,47.59359,-54.27349
2018-01-26 17:30:00+00:00,313.0,316.0,6.44,8.01,,47.59359,-54.27349
2018-01-26 17:40:00+00:00,312.0,318.0,6.04,7.5,,47.59359,-54.27349
2018-01-26 17:50:00+00:00,312.0,318.0,6.16,7.06,,47.59359,-54.27349
2018-01-26 18:00:00+00:00,317.0,315.0,4.09,5.3,,47.59359,-54.27349
2018-01-26 18:10:00+00:00,313.0,313.0,3.92,5.26,,47.59359,-54.27349
2018-01-26 18:20:00+00:00,352.0,350.0,5.51,6.73,,47.59359,-54.27349
2018-01-26 18:30:00+00:00,342.0,350.0,5.06,6.29,,47.59359,-54.27349
2018-01-26 18:40:00+00:00,326.0,323.0,4.55,5.88,,47.59359,-54.27349
2018-01-26 18:50:00+00:00,335.0,337.0,5.43,6.86,,47.59359,-54.27349
2018-01-26 19:00:00+00:00,320.0,324.0,3.81,4.45,,47.59359,-54.27349
2018-01-26 19:10:00+00:00,311.0,316.0,8.49,9.93,,47.59359,-54.27349
2018-01-26 19:20:00+00:00,307.0,308.0,6.92,7.89,,47.59359,-54.27349
2018-01-26 19:30:00+00:00,325.0,326.0,5.89,7.32,,47.59359,-54.27349
2018-01-26 19:40:00+00:00,315.0,317.0,5.74,6.73,,47.59359,-54.27349
2018-01-26 19:50:00+00:00,303.0,307.0,5.78,6.89,,47.59359,-54.27349
2018-01-26 20:00:00+00:00,300.0,301.0,5.79,7.0,,47.59359,-54.27349
2018-01-26 20:10:00+00:00,315.0,318.0,6.44,7.35,,47.59359,-54.27349
2018-01-26 20:20:00+00:00,323.0,325.0,4.91,5.62,,47.59359,-54.27349
2018-01-26 20:30:00+00:00,337.0,330.0,5.27,6.83,,47.59359,-54.27349
2018-01-26 20:40:00+00:00,353.0,359.0,5.98,6.76,,47.59359,-54.27349
2018-01-26 20:50:00+00:00,7.0,6.0,5.4,6.77,,47.59359,-54.27349
2018-01-26 21:00:00+00:00,359.0,359.0,4.64,5.79,,47.59359,-54.27349
2018-01-26 21:10:00+00:00,322.0,318.0,5.83,6.63,,47.59359,-54.27349
2018-01-26 21:20:00+00:00,0.0,353.0,5.31,6.3,,47.59359,-54.27349
2018-01-26 21:30:00+00:00,342.0,358.0,5.27,6.82,,47.59359,-54.27349
2018-01-26 21:40:00+00:00,347.0,348.0,3.67,4.6,,47.59359,-54.27349
2018-01-26 21:50:00+00:00,319.0,330.0,3.17,4.09,,47.59359,-54.27349
2018-01-26 22:00:00+00:00,358.0,1.0,5.36,7.82,,47.59359,-54.27349
2018-01-26 22:10:00+00:00,354.0,349.0,6.78,8.32,,47.59359,-54.27349
2018-01-26 22:20:00+00:00,341.0,334.0,6.86,8.03,,47.59359,-54.27349
2018-01-26 22:30:00+00:00,322.0,319.0,5.2,6.34,,47.59359,-54.27349
2018-01-26 22:40:00+00:00,347.0,350.0,6.33,7.87,,47.59359,-54.27349
2018-01-26 22:50:00+00:00,6.0,6.0,5.31,6.46,,47.59359,-54.27349
2018-01-26 23:00:00+00:00,355.0,352.0,4.99,5.91,,47.59359,-54.27349
2018-01-26 23:10:00+00:00,15.0,8.0,4.86,6.25,,47.59359,-54.27349
2018-01-26 23:20:00+00:00,343.0,343.0,4.26,5.44,,47.59359,-54.27349
2018-01-26 23:30:00+00:00,350.0,2.0,4.5,5.84,,47.59359,-54.27349
2018-01-26 23:40:00+00:00,352.0,2.0,4.51,5.73,,47.59359,-54.27349
2018-01-26 23:50:00+00:00,358.0,6.0,6.32,7.43,,47.59359,-54.27349
